When you browse on this site, cookies collect data to enhance your experience and personalize the content and advertising you see.
Visit our Privacy Policy to learn more. By continuing to use the site, you agree to this use of cookies and data.
  • în România
  • Lista ţărilor
  • Pe 7 zile
  • Temperatura apei
  • Hartă satelitară
  • Meteo pe hartă
  • Widget-uri
  • user-avatar
    Intrare

    Meteo pe oră la Mingachevir

    Astăzi, 16 Iunie, Duminică

    Timp Temperatura Precipitaţii Vânt Presiune Umiditate
    00:00 +26°C° 0 mm 2 m/s 750 mmHg 42%
    01:00 +25°C° 0 mm 2 m/s 750 mmHg 44%
    02:00 +25°C° 0 mm 1 m/s 750 mmHg 45%
    03:00 +24°C° 0 mm 1 m/s 750 mmHg 47%
    04:00 +25°C° 0 mm 1 m/s 750 mmHg 47%
    05:00 +25°C° 0 mm 1 m/s 750 mmHg 47%
    06:00 +24°C° 0 mm 0 m/s 750 mmHg 48%
    07:00 +28°C° 0 mm 1 m/s 749 mmHg 43%
    08:00 +29°C° 0 mm 1 m/s 749 mmHg 39%
    09:00 +31°C° 0 mm 1 m/s 749 mmHg 34%
    10:00 +32°C° 0 mm 1 m/s 749 mmHg 31%
    11:00 +33°C° 0 mm 1 m/s 748 mmHg 29%
    12:00 +34°C° 0 mm 1 m/s 748 mmHg 26%
    13:00 +35°C° 0 mm 1 m/s 747 mmHg 26%
    14:00 +36°C° 0 mm 1 m/s 747 mmHg 25%
    15:00 +36°C° 0 mm 1 m/s 747 mmHg 24%
    16:00 +36°C° 0 mm 1 m/s 746 mmHg 26%
    17:00 +36°C° 0 mm 2 m/s 746 mmHg 28%
    18:00 +36°C° 0 mm 3 m/s 746 mmHg 30%
    19:00 +35°C° 0 mm 2 m/s 747 mmHg 35%
    20:00 +32°C° 0 mm 2 m/s 747 mmHg 40%
    21:00 +30°C° 0 mm 2 m/s 748 mmHg 44%
    22:00 +30°C° 0 mm 2 m/s 748 mmHg 45%
    23:00 +29°C° 0 mm 2 m/s 748 mmHg 46%

    Mâine, 17 Iunie, Luni

    Timp Temperatura Precipitaţii Vânt Presiune Umiditate
    00:00 +28°C° 0 mm 2 m/s 748 mmHg 47%
    01:00 +27°C° 0 mm 2 m/s 748 mmHg 50%
    02:00 +27°C° 0 mm 1 m/s 747 mmHg 52%
    03:00 +26°C° 0 mm 1 m/s 747 mmHg 55%
    04:00 +26°C° 0 mm 1 m/s 747 mmHg 54%
    05:00 +27°C° 0 mm 1 m/s 747 mmHg 53%
    06:00 +27°C° 0 mm 1 m/s 747 mmHg 53%
    07:00 +29°C° 0 mm 1 m/s 747 mmHg 49%
    08:00 +30°C° 0 mm 1 m/s 747 mmHg 46%
    09:00 +32°C° 0 mm 2 m/s 748 mmHg 42%
    10:00 +33°C° 0 mm 1 m/s 747 mmHg 39%
    11:00 +34°C° 0 mm 1 m/s 747 mmHg 36%
    12:00 +35°C° 0 mm 1 m/s 747 mmHg 33%
    13:00 +37°C° 0 mm 2 m/s 746 mmHg 32%
    14:00 +37°C° 0 mm 2 m/s 746 mmHg 32%
    15:00 +38°C° 0 mm 3 m/s 746 mmHg 31%
    16:00 +37°C° 0 mm 3 m/s 746 mmHg 32%
    17:00 +37°C° 0 mm 4 m/s 746 mmHg 33%
    18:00 +37°C° 0 mm 4 m/s 746 mmHg 34%
    19:00 +34°C° 0.2 mm 3 m/s 747 mmHg 39%
    20:00 +31°C° 0.2 mm 3 m/s 747 mmHg 44%
    21:00 +29°C° 0.2 mm 3 m/s 748 mmHg 50%
    22:00 +29°C° 0 mm 2 m/s 748 mmHg 49%
    23:00 +28°C° 0 mm 2 m/s 748 mmHg 49%

    Poimâine, 18 Iunie, Marţi

    Timp Temperatura Precipitaţii Vânt Presiune Umiditate
    00:00 +28°C° 0 mm 1 m/s 748 mmHg 48%
    01:00 +27°C° 0.1 mm 1 m/s 748 mmHg 52%
    02:00 +26°C° 0.1 mm 1 m/s 748 mmHg 55%
    03:00 +26°C° 0.1 mm 1 m/s 748 mmHg 58%
    04:00 +26°C° 0.4 mm 1 m/s 748 mmHg 60%
    05:00 +26°C° 0.4 mm 1 m/s 748 mmHg 61%
    06:00 +26°C° 0.4 mm 1 m/s 748 mmHg 63%
    07:00 +27°C° 0.2 mm 2 m/s 748 mmHg 58%
    08:00 +29°C° 0.2 mm 2 m/s 748 mmHg 52%
    09:00 +30°C° 0.2 mm 2 m/s 748 mmHg 47%
    10:00 +31°C° 0 mm 2 m/s 748 mmHg 42%
    11:00 +34°C° 0 mm 2 m/s 748 mmHg 38%
    12:00 +35°C° 0 mm 2 m/s 748 mmHg 33%
    13:00 +36°C° 0 mm 3 m/s 747 mmHg 32%
    14:00 +37°C° 0 mm 4 m/s 747 mmHg 30%
    15:00 +38°C° 0 mm 4 m/s 746 mmHg 28%
    16:00 +37°C° 0.1 mm 4 m/s 747 mmHg 30%
    17:00 +36°C° 0.1 mm 3 m/s 747 mmHg 32%
    18:00 +36°C° 0.1 mm 2 m/s 747 mmHg 34%
    19:00 +34°C° 0 mm 3 m/s 747 mmHg 36%
    20:00 +32°C° 0 mm 4 m/s 748 mmHg 38%
    21:00 +30°C° 0 mm 5 m/s 748 mmHg 41%
    22:00 +30°C° 0.1 mm 5 m/s 749 mmHg 41%
    23:00 +29°C° 0.1 mm 4 m/s 749 mmHg 42%

    19 Iunie, Miercuri

    Timp Temperatura Precipitaţii Vânt Presiune Umiditate
    00:00 +29°C° 0.1 mm 4 m/s 749 mmHg 42%
    01:00 +28°C° 0 mm 3 m/s 749 mmHg 44%
    02:00 +28°C° 0 mm 3 m/s 749 mmHg 47%
    03:00 +27°C° 0 mm 2 m/s 748 mmHg 49%
    04:00 +27°C° 0 mm 2 m/s 749 mmHg 50%
    05:00 +27°C° 0 mm 2 m/s 749 mmHg 51%
    06:00 +28°C° 0 mm 3 m/s 749 mmHg 51%
    07:00 +29°C° 0 mm 3 m/s 749 mmHg 47%
    08:00 +30°C° 0 mm 3 m/s 749 mmHg 43%
    09:00 +33°C° 0 mm 3 m/s 749 mmHg 39%
    10:00 +34°C° 0 mm 3 m/s 748 mmHg 35%
    11:00 +36°C° 0 mm 3 m/s 748 mmHg 30%
    12:00 +37°C° 0 mm 3 m/s 748 mmHg 25%
    13:00 +38°C° 0 mm 4 m/s 748 mmHg 24%
    14:00 +39°C° 0 mm 5 m/s 747 mmHg 23%
    15:00 +40°C° 0 mm 6 m/s 747 mmHg 22%
    16:00 +39°C° 0 mm 5 m/s 747 mmHg 23%
    17:00 +39°C° 0 mm 5 m/s 747 mmHg 25%
    18:00 +37°C° 0 mm 5 m/s 747 mmHg 26%
    19:00 +35°C° 0 mm 5 m/s 748 mmHg 27%
    20:00 +33°C° 0 mm 5 m/s 748 mmHg 29%
    21:00 +32°C° 0 mm 5 m/s 748 mmHg 30%
    22:00 +30°C° 0 mm 5 m/s 748 mmHg 32%
    23:00 +29°C° 0 mm 4 m/s 748 mmHg 34%

    20 Iunie, Joi

    Timp Temperatura Precipitaţii Vânt Presiune Umiditate
    00:00 +28°C° 0 mm 4 m/s 749 mmHg 36%
    01:00 +28°C° 0 mm 4 m/s 748 mmHg 37%
    02:00 +27°C° 0 mm 3 m/s 748 mmHg 38%
    03:00 +27°C° 0 mm 3 m/s 748 mmHg 39%
    04:00 +27°C° 0 mm 3 m/s 748 mmHg 39%
    05:00 +28°C° 0 mm 3 m/s 748 mmHg 39%
    06:00 +28°C° 0 mm 3 m/s 748 mmHg 39%
    07:00 +30°C° 0 mm 4 m/s 748 mmHg 35%
    08:00 +33°C° 0 mm 5 m/s 748 mmHg 30%
    09:00 +35°C° 0 mm 5 m/s 748 mmHg 26%
    10:00 +36°C° 0 mm 5 m/s 748 mmHg 25%
    11:00 +38°C° 0 mm 6 m/s 748 mmHg 24%
    12:00 +38°C° 0 mm 6 m/s 748 mmHg 23%
    13:00 +39°C° 0 mm 6 m/s 747 mmHg 22%
    14:00 +39°C° 0 mm 6 m/s 747 mmHg 22%
    15:00 +39°C° 0 mm 6 m/s 746 mmHg 22%
    16:00 +39°C° 0 mm 6 m/s 746 mmHg 23%
    17:00 +38°C° 0 mm 6 m/s 746 mmHg 24%
    18:00 +38°C° 0 mm 7 m/s 747 mmHg 25%
    19:00 +35°C° 0 mm 7 m/s 747 mmHg 28%
    20:00 +33°C° 0 mm 7 m/s 748 mmHg 30%
    21:00 +30°C° 0 mm 7 m/s 748 mmHg 32%
    22:00 +30°C° 0 mm 6 m/s 748 mmHg 34%
    23:00 +29°C° 0 mm 5 m/s 748 mmHg 35%

    21 Iunie, Vineri

    Timp Temperatura Precipitaţii Vânt Presiune Umiditate
    00:00 +29°C° 0 mm 4 m/s 748 mmHg 37%
    01:00 +28°C° 0.2 mm 4 m/s 748 mmHg 40%
    02:00 +27°C° 0.2 mm 4 m/s 748 mmHg 44%
    03:00 +26°C° 0.2 mm 3 m/s 748 mmHg 47%
    04:00 +26°C° 0.3 mm 3 m/s 749 mmHg 49%
    05:00 +26°C° 0.3 mm 3 m/s 749 mmHg 51%
    06:00 +26°C° 0.3 mm 3 m/s 749 mmHg 53%
    07:00 +27°C° 0.4 mm 4 m/s 749 mmHg 51%
    08:00 +27°C° 0.4 mm 4 m/s 749 mmHg 49%
    09:00 +28°C° 0.4 mm 5 m/s 749 mmHg 47%
    10:00 +28°C° 0.3 mm 4 m/s 750 mmHg 45%
    11:00 +29°C° 0.3 mm 4 m/s 750 mmHg 43%
    12:00 +29°C° 0.3 mm 3 m/s 750 mmHg 41%
    13:00 +30°C° 0.1 mm 3 m/s 750 mmHg 39%
    14:00 +31°C° 0.1 mm 3 m/s 750 mmHg 36%
    15:00 +31°C° 0.1 mm 2 m/s 749 mmHg 34%
    16:00 +31°C° 0 mm 3 m/s 749 mmHg 35%
    17:00 +31°C° 0 mm 3 m/s 749 mmHg 36%
    18:00 +31°C° 0 mm 3 m/s 749 mmHg 36%
    19:00 +30°C° 0 mm 2 m/s 750 mmHg 39%
    20:00 +29°C° 0 mm 2 m/s 750 mmHg 42%
    21:00 +27°C° 0 mm 1 m/s 751 mmHg 45%
    22:00 +27°C° 0 mm 2 m/s 751 mmHg 46%
    23:00 +27°C° 0 mm 2 m/s 751 mmHg 47%
    Arată mai mult